Regional Weather Roundup
Issued by NWS

Home | Current Version | Previous Version | Text Only | Print | Product List | Glossary On
Versions: 1 2 3 4 5 6 7 8 9 10 11 12 13 14 15 16 17 18 19 20 21 22 23 24 25 26 27 28 29 30 31 32 33 34 35 36 37 38 39 40 41 42 43 44 45 46 47 48 49 50
000
ASUS43 KOAX 200310
RWRNE

WEATHER ROUNDUP FOR NEBRASKA
NATIONAL WEATHER SERVICE OMAHA NE
1000 PM CDT SAT AUG 19 2017

NOTES: SATELLITE DATA IS BEING USED TO AUGMENT CLOUD COVER ABOVE
       12000 FEET.
       "FAIR" INDICATES FEW OR NO CLOUDS BELOW 12,000 FEET WITH NO
       SIGNIFICANT WEATHER AND/OR OBSTRUCTIONS TO VISIBILITY.


NEZ001>004-019>022-054>056-200400-
NEBRASKA PANHANDLE

CITY           SKY/WX    TMP DP  RH WIND       PRES   REMARKS
SCOTTSBLUFF    CLEAR     72  49  44 E8        29.93R
ALLIANCE       CLEAR     68  52  56 SE3       29.92R
CHADRON        CLEAR     72  51  47 SE3       29.87R
GORDON         FAIR      66  56  71 CALM      29.90R
KIMBALL        CLEAR     69  42  36 E6        30.01R
SIDNEY         CLEAR     70  54  56 E5        29.97R
$$

NEZ057>060-069>072-079>082-200400-
SOUTHWEST NEBRASKA

CITY           SKY/WX    TMP DP  RH WIND       PRES   REMARKS
NORTH PLATTE   CLEAR     73  67  81 E6        29.85R
IMPERIAL       CLEAR     74  62  66 CALM      29.87R
LEXINGTON      PTCLDY    78  63  59 SE9       29.85R
MCCOOK         CLEAR     81  58  45 SW13      29.84R
OGALLALA       CLEAR     69  62  78 W3        29.88R
$$

NEZ005>010-023>029-035>040-094-200400-
NORTH CENTRAL NEBRASKA

CITY           SKY/WX    TMP DP  RH WIND       PRES   REMARKS
VALENTINE      CLEAR     78  64  61 NE5       29.83R
AINSWORTH      CLOUDY    73  63  71 S12       29.87R
BROKEN BOW     CLOUDY    73  56  54 N18G33    29.93R THUNDER
O`NEILL        CLOUDY    78  56  45 S15       29.81F
ORD            TSTM      78  61  55 NE13G24   29.89R
THEDFORD       PTCLDY    76  60  57 SE14G25   29.89R
$$

NEZ041-046>049-061>064-073>077-083>087-200400-
SOUTH CENTRAL NEBRASKA

CITY           SKY/WX    TMP DP  RH WIND       PRES   REMARKS
GRAND ISLAND   CLOUDY    80  72  76 SE17      29.84R
AURORA         CLOUDY    80  67  63 S14       29.85R
HASTINGS       CLOUDY    79  70  74 SE10      29.86S
HEBRON         CLOUDY    81  71  72 SE8       29.86S
HOLDREGE       TSTM      74  62  65 CALM      29.86R
KEARNEY        PTCLDY    78  64  61 SE13      29.85R
YORK           CLOUDY    77  68  73 S7        29.86R
$$

NEZ011>018-030>034-042>045-200400-
NORTHEAST NEBRASKA

CITY           SKY/WX    TMP DP  RH WIND       PRES   REMARKS
NORFOLK        CLOUDY    75  66  73 SW14      29.88R
ALBION         TSTM      64  61  91 N17G55    30.01R VSB 1
BLAIR          CLOUDY    76  63  62 SE8       29.88F THUNDER
COLUMBUS       CLOUDY    73  67  81 NE7       29.87R
FREMONT        CLOUDY    76  62  62 SE9       29.86F THUNDER
TEKAMAH        CLOUDY    70  66  87 SE8       29.84F
WAYNE          CLOUDY    74  68  81 S10G18    29.84S THUNDER
$$

NEZ050>053-065>068-078-088>093-200400-
SOUTHEAST NEBRASKA

CITY           SKY/WX    TMP DP  RH WIND       PRES   REMARKS
LINCOLN        CLOUDY    80  66  62 SE10      29.87R
OMAHA EPPLEY   CLOUDY    80  61  52 SE12      29.88R
BEATRICE       PTCLDY    82  69  66 SE9       29.88R
FALLS CITY     CLEAR     75  69  81 SE5       29.90R
NEBRASKA CITY  PTCLDY    76  66  71 SE7       29.89S
PLATTSMOUTH    PTCLDY    74  62  67 SE7       29.89S
$$

NEZ044-045-051>053-067-200400-
OMAHA AREA

CITY           SKY/WX    TMP DP  RH WIND       PRES   REMARKS
OMAHA EPPLEY   CLOUDY    80  61  52 SE12      29.88R
BLAIR          CLOUDY    76  63  62 SE8       29.88F THUNDER
FREMONT        CLOUDY    76  62  62 SE9       29.86F THUNDER
MILLARD        CLOUDY    78  64  63 SE6       29.87F
OFFUTT AFB     PTCLDY    74  62  66 SE6       29.88R
PLATTSMOUTH    PTCLDY    74  62  67 SE7       29.89S
WAHOO          FAIR      72  65  79 SE6       29.87S
$$



USA.gov is the U.S. government's official web portal to all federal, state and local government web resources and services.